Location: Unspecified
(0.0000°N, 0.0000°E)
Time: 09:35:10
(UTC+00:00)

STARLINK-1316 - Pass Details

Date: 17 February 2026
Orbit: 474 x 476 km, 53.2° (Epoch: 7 March)

Event Time Altitude Azimuth Distance (km) Brightness Sun altitude
Exits shadow 05:28:22 - 229° (SW) 2,119 6.3 -11.2°
Reaches altitude 10° 05:29:37 10° 235° (SW) 1,634 5.6 -10.9°
Maximum altitude 05:33:03 37° 304° (WNW) 740 3.8 -10.0°
Drops below altitude 10° 05:36:29 10° 13° (NNE) 1,626 6.0 -9.2°
Sets 05:38:44 0° 21° (NNE) 2,499 7.1 -8.6°
